Time,TemperatureF,DewpointF,PressureIn,WindDirection,WindDirectionDegrees,WindSpeedMPH,WindSpeedGustMPH,Humidity,HourlyPrecipIn,Conditions,Clouds,dailyrainin,SoftwareType,DateUTC
2013-03-18 00:00:00,52.2,40.0,30.11,North,0,0.0,0.0,63,0.00,,,0.00,WUHU216HW,2013-03-18 04:00:00,
2013-03-18 00:01:00,52.2,40.0,30.11,North,0,0.0,0.0,63,0.00,,,0.00,WUHU216HW,2013-03-18 04:01:00,
2013-03-18 00:06:00,52.2,40.0,30.11,North,0,0.0,0.0,63,0.00,,,0.00,WUHU216HW,2013-03-18 04:06:00,
2013-03-18 00:30:00,52.0,40.1,30.12,North,0,0.0,0.0,64,0.00,,,0.00,WUHU216HW,2013-03-18 04:30:00,
2013-03-18 00:35:00,52.0,40.1,30.12,North,0,0.0,0.0,64,0.00,,,0.00,WUHU216HW,2013-03-18 04:35:00,
2013-03-18 01:00:00,51.8,40.0,30.11,North,0,0.0,0.0,64,0.00,,,0.00,WUHU216HW,2013-03-18 05:00:00,
2013-03-18 01:05:00,51.8,40.0,30.11,North,0,0.0,0.0,64,0.00,,,0.00,WUHU216HW,2013-03-18 05:05:00,
2013-03-18 01:30:00,51.8,40.0,30.11,North,0,0.0,0.0,64,0.00,,,0.00,WUHU216HW,2013-03-18 05:30:00,
2013-03-18 01:35:00,51.8,40.0,30.11,North,0,0.0,0.0,64,0.00,,,0.00,WUHU216HW,2013-03-18 05:35:00,
2013-03-18 02:00:00,51.8,40.0,30.11,North,0,0.0,0.0,64,0.00,,,0.00,WUHU216HW,2013-03-18 06:00:00,
2013-03-18 02:05:00,51.8,40.0,30.11,North,0,0.0,0.0,64,0.00,,,0.00,WUHU216HW,2013-03-18 06:05:00,
2013-03-18 02:30:00,52.0,40.1,30.11,North,0,0.0,0.0,64,0.00,,,0.00,WUHU216HW,2013-03-18 06:30:00,
2013-03-18 02:35:00,52.0,40.1,30.11,North,0,0.0,0.0,64,0.00,,,0.00,WUHU216HW,2013-03-18 06:35:00,
2013-03-18 03:00:00,52.0,39.8,30.09,North,0,0.0,0.0,63,0.00,,,0.00,WUHU216HW,2013-03-18 07:00:00,
2013-03-18 03:05:00,52.0,39.8,30.09,North,0,0.0,0.0,63,0.00,,,0.00,WUHU216HW,2013-03-18 07:05:00,
2013-03-18 03:30:00,52.0,39.3,30.09,North,0,0.0,0.0,62,0.00,,,0.00,WUHU216HW,2013-03-18 07:30:00,
2013-03-18 03:35:00,52.0,39.3,30.09,North,0,0.0,0.0,62,0.00,,,0.00,WUHU216HW,2013-03-18 07:35:00,
2013-03-18 04:00:00,51.7,38.6,30.08,North,0,0.0,0.0,61,0.00,,,0.00,WUHU216HW,2013-03-18 08:00:00,
2013-03-18 04:05:00,51.7,38.6,30.08,North,0,0.0,0.0,61,0.00,,,0.00,WUHU216HW,2013-03-18 08:05:00,
2013-03-18 04:30:00,51.7,37.7,30.09,North,0,0.0,0.0,59,0.00,,,0.00,WUHU216HW,2013-03-18 08:30:00,
2013-03-18 04:35:00,51.7,37.7,30.09,North,0,0.0,0.0,59,0.00,,,0.00,WUHU216HW,2013-03-18 08:35:00,
2013-03-18 05:00:00,51.5,37.5,30.09,North,0,0.0,0.0,59,0.00,,,0.00,WUHU216HW,2013-03-18 09:00:00,
2013-03-18 05:05:00,51.5,37.5,30.09,North,0,0.0,0.0,59,0.00,,,0.00,WUHU216HW,2013-03-18 09:05:00,
2013-03-18 05:30:00,51.7,36.8,30.07,North,0,0.0,0.0,57,0.00,,,0.00,WUHU216HW,2013-03-18 09:30:00,
2013-03-18 05:35:00,51.7,36.8,30.07,North,0,0.0,0.0,57,0.00,,,0.00,WUHU216HW,2013-03-18 09:35:00,
2013-03-18 06:00:00,51.7,36.4,30.08,North,0,0.0,0.0,56,0.00,,,0.00,WUHU216HW,2013-03-18 10:00:00,
2013-03-18 06:05:00,51.7,36.4,30.08,North,0,0.0,0.0,56,0.00,,,0.00,WUHU216HW,2013-03-18 10:05:00,
2013-03-18 06:30:00,51.8,36.1,30.08,North,0,0.0,0.0,55,0.00,,,0.00,WUHU216HW,2013-03-18 10:30:00,
2013-03-18 06:35:00,51.8,36.1,30.08,North,0,0.0,0.0,55,0.00,,,0.00,WUHU216HW,2013-03-18 10:35:00,
2013-03-18 06:59:00,51.7,35.5,30.11,North,0,0.0,0.0,54,0.00,,,0.00,WUHU216HW,2013-03-18 10:59:00,
2013-03-18 07:00:00,51.7,35.5,30.11,North,0,0.0,0.0,54,0.00,,,0.00,WUHU216HW,2013-03-18 11:00:00,
2013-03-18 07:05:00,51.7,35.5,30.11,North,0,0.0,0.0,54,0.00,,,0.00,WUHU216HW,2013-03-18 11:05:00,
2013-03-18 07:30:00,51.1,35.5,30.11,North,0,0.0,0.0,55,0.00,,,0.00,WUHU216HW,2013-03-18 11:30:00,
2013-03-18 07:35:00,51.1,35.5,30.11,North,0,0.0,0.0,55,0.00,,,0.00,WUHU216HW,2013-03-18 11:35:00,
2013-03-18 08:00:00,50.6,35.8,30.11,North,0,0.0,0.0,57,0.00,,,0.00,WUHU216HW,2013-03-18 12:00:00,
2013-03-18 08:05:00,50.6,35.8,30.11,North,0,0.0,0.0,57,0.00,,,0.00,WUHU216HW,2013-03-18 12:05:00,
2013-03-18 08:30:00,50.8,36.0,30.11,North,0,0.0,0.0,57,0.00,,,0.00,WUHU216HW,2013-03-18 12:30:00,
2013-03-18 08:35:00,50.8,36.0,30.11,North,0,0.0,0.0,57,0.00,,,0.00,WUHU216HW,2013-03-18 12:35:00,
2013-03-18 09:00:00,50.9,36.6,30.13,North,0,0.0,0.0,58,0.00,,,0.00,WUHU216HW,2013-03-18 13:00:00,
2013-03-18 09:05:00,50.9,36.6,30.13,North,0,0.0,0.0,58,0.00,,,0.00,WUHU216HW,2013-03-18 13:05:00,
2013-03-18 09:30:00,52.0,38.5,30.14,North,0,0.0,0.0,60,0.00,,,0.00,WUHU216HW,2013-03-18 13:30:00,
2013-03-18 09:35:00,52.0,38.5,30.14,North,0,0.0,0.0,60,0.00,,,0.00,WUHU216HW,2013-03-18 13:35:00,
2013-03-18 10:00:00,51.8,37.9,30.14,North,0,0.0,0.0,59,0.00,,,0.00,WUHU216HW,2013-03-18 14:00:00,
2013-03-18 10:05:00,51.8,37.9,30.14,North,0,0.0,0.0,59,0.00,,,0.00,WUHU216HW,2013-03-18 14:05:00,
2013-03-18 10:30:00,52.6,38.6,30.13,North,0,0.0,0.0,59,0.00,,,0.00,WUHU216HW,2013-03-18 14:30:00,
2013-03-18 10:35:00,52.6,38.6,30.13,North,0,0.0,0.0,59,0.00,,,0.00,WUHU216HW,2013-03-18 14:35:00,
2013-03-18 11:00:00,52.7,39.6,30.12,North,0,0.0,0.0,61,0.00,,,0.00,WUHU216HW,2013-03-18 15:00:00,
2013-03-18 11:05:00,52.7,39.6,30.12,North,0,0.0,0.0,61,0.00,,,0.00,WUHU216HW,2013-03-18 15:05:00,
2013-03-18 11:30:00,52.9,39.4,30.12,North,0,0.0,0.0,60,0.00,,,0.00,WUHU216HW,2013-03-18 15:30:00,
2013-03-18 11:35:00,52.9,39.4,30.12,North,0,0.0,0.0,60,0.00,,,0.00,WUHU216HW,2013-03-18 15:35:00,
2013-03-18 12:00:00,52.4,38.0,30.10,North,0,0.0,0.0,58,0.00,,,0.00,WUHU216HW,2013-03-18 16:00:00,
2013-03-18 12:05:00,52.4,38.0,30.10,North,0,0.0,0.0,58,0.00,,,0.00,WUHU216HW,2013-03-18 16:05:00,
2013-03-18 12:30:00,55.1,41.9,30.10,North,0,0.0,0.0,61,0.00,,,0.00,WUHU216HW,2013-03-18 16:30:00,
2013-03-18 12:35:00,55.1,41.9,30.10,North,0,0.0,0.0,61,0.00,,,0.00,WUHU216HW,2013-03-18 16:35:00,
2013-03-18 13:00:00,56.0,43.6,30.10,North,0,0.0,0.0,63,0.00,,,0.00,WUHU216HW,2013-03-18 17:00:00,
2013-03-18 13:05:00,56.0,43.6,30.10,North,0,0.0,0.0,63,0.00,,,0.00,WUHU216HW,2013-03-18 17:05:00,
2013-03-18 13:30:00,56.5,44.8,30.08,North,0,0.0,0.0,65,0.00,,,0.00,WUHU216HW,2013-03-18 17:30:00,
2013-03-18 13:35:00,56.5,44.8,30.08,North,0,0.0,0.0,65,0.00,,,0.00,WUHU216HW,2013-03-18 17:35:00,
2013-03-18 14:00:00,57.8,45.6,30.07,North,0,0.0,0.0,64,0.00,,,0.00,WUHU216HW,2013-03-18 18:00:00,
2013-03-18 14:05:00,57.8,45.6,30.07,North,0,0.0,0.0,64,0.00,,,0.00,WUHU216HW,2013-03-18 18:05:00,
2013-03-18 14:30:00,59.6,47.8,30.05,North,0,0.0,0.0,65,0.00,,,0.00,WUHU216HW,2013-03-18 18:30:00,
2013-03-18 14:35:00,59.6,47.8,30.05,North,0,0.0,0.0,65,0.00,,,0.00,WUHU216HW,2013-03-18 18:35:00,
2013-03-18 15:00:00,61.7,50.7,30.02,North,0,0.0,0.0,67,0.00,,,0.00,WUHU216HW,2013-03-18 19:00:00,
2013-03-18 15:05:00,61.7,50.7,30.02,North,0,0.0,0.0,67,0.00,,,0.00,WUHU216HW,2013-03-18 19:05:00,
2013-03-18 15:30:00,61.6,50.5,30.01,North,0,0.0,0.0,67,0.00,,,0.00,WUHU216HW,2013-03-18 19:30:00,
2013-03-18 15:35:00,61.6,50.5,30.01,North,0,0.0,0.0,67,0.00,,,0.00,WUHU216HW,2013-03-18 19:35:00,
2013-03-18 16:00:00,63.5,52.4,30.00,North,0,0.0,0.0,67,0.00,,,0.00,WUHU216HW,2013-03-18 20:00:00,
2013-03-18 16:05:00,63.5,52.4,30.00,North,0,0.0,0.0,67,0.00,,,0.00,WUHU216HW,2013-03-18 20:05:00,
2013-03-18 16:30:00,62.5,51.8,29.99,North,0,0.0,0.0,68,0.00,,,0.00,WUHU216HW,2013-03-18 20:30:00,
2013-03-18 16:35:00,62.5,51.8,29.99,North,0,0.0,0.0,68,0.00,,,0.00,WUHU216HW,2013-03-18 20:35:00,
2013-03-18 17:00:00,59.6,48.6,29.99,North,0,0.0,0.0,67,0.00,,,0.00,WUHU216HW,2013-03-18 21:00:00,
2013-03-18 17:05:00,59.6,48.6,29.99,North,0,0.0,0.0,67,0.00,,,0.00,WUHU216HW,2013-03-18 21:05:00,
2013-03-18 17:30:00,59.0,47.3,29.97,North,0,0.0,0.0,65,0.00,,,0.00,WUHU216HW,2013-03-18 21:30:00,
2013-03-18 17:35:00,59.0,47.3,29.97,North,0,0.0,0.0,65,0.00,,,0.00,WUHU216HW,2013-03-18 21:35:00,
2013-03-18 18:00:00,57.2,45.2,29.98,North,0,0.0,0.0,64,0.00,,,0.00,WUHU216HW,2013-03-18 22:00:00,
2013-03-18 18:05:00,57.2,45.2,29.98,North,0,0.0,0.0,64,0.00,,,0.00,WUHU216HW,2013-03-18 22:05:00,
2013-03-18 18:30:00,55.3,40.7,29.97,North,0,0.0,0.0,58,0.00,,,0.00,WUHU216HW,2013-03-18 22:30:00,
2013-03-18 18:35:00,55.3,40.7,29.97,North,0,0.0,0.0,58,0.00,,,0.00,WUHU216HW,2013-03-18 22:35:00,
2013-03-18 19:00:00,55.6,41.1,29.97,North,0,0.0,0.0,58,0.00,,,0.00,WUHU216HW,2013-03-18 23:00:00,
2013-03-18 19:05:00,55.6,41.1,29.97,North,0,0.0,0.0,58,0.00,,,0.00,WUHU216HW,2013-03-18 23:05:00,
2013-03-18 19:30:00,55.1,40.1,29.95,North,0,0.0,0.0,57,0.00,,,0.00,WUHU216HW,2013-03-18 23:30:00,
2013-03-18 19:35:00,55.1,40.1,29.95,North,0,0.0,0.0,57,0.00,,,0.00,WUHU216HW,2013-03-18 23:35:00,
2013-03-18 20:00:00,54.0,38.6,29.94,North,0,0.0,0.0,56,0.00,,,0.00,WUHU216HW,2013-03-19 00:00:00,
2013-03-18 20:05:00,54.0,38.6,29.94,North,0,0.0,0.0,56,0.00,,,0.00,WUHU216HW,2013-03-19 00:05:00,
2013-03-18 20:30:00,53.6,37.8,29.93,North,0,0.0,0.0,55,0.00,,,0.00,WUHU216HW,2013-03-19 00:30:00,
2013-03-18 20:35:00,53.6,37.8,29.93,North,0,0.0,0.0,55,0.00,,,0.00,WUHU216HW,2013-03-19 00:35:00,
2013-03-18 21:00:00,53.6,37.4,29.93,North,0,0.0,0.0,54,0.00,,,0.00,WUHU216HW,2013-03-19 01:00:00,
2013-03-18 21:05:00,53.6,37.4,29.93,North,0,0.0,0.0,54,0.00,,,0.00,WUHU216HW,2013-03-19 01:05:00,
2013-03-18 21:30:00,53.6,36.9,29.94,North,0,0.0,0.0,53,0.00,,,0.00,WUHU216HW,2013-03-19 01:30:00,
2013-03-18 21:35:00,53.6,36.9,29.94,North,0,0.0,0.0,53,0.00,,,0.00,WUHU216HW,2013-03-19 01:35:00,
2013-03-18 22:00:00,53.8,36.5,29.91,North,0,0.0,0.0,52,0.00,,,0.00,WUHU216HW,2013-03-19 02:00:00,
2013-03-18 22:05:00,53.8,36.5,29.91,North,0,0.0,0.0,52,0.00,,,0.00,WUHU216HW,2013-03-19 02:05:00,
2013-03-18 22:30:00,53.5,35.7,29.88,North,0,0.0,0.0,51,0.00,,,0.00,WUHU216HW,2013-03-19 02:30:00,
2013-03-18 22:35:00,53.5,35.7,29.88,North,0,0.0,0.0,51,0.00,,,0.00,WUHU216HW,2013-03-19 02:35:00,
2013-03-18 23:00:00,55.1,36.7,29.89,North,0,0.0,0.0,50,0.00,,,0.00,WUHU216HW,2013-03-19 03:00:00,
2013-03-18 23:05:00,55.1,36.7,29.89,North,0,0.0,0.0,50,0.00,,,0.00,WUHU216HW,2013-03-19 03:05:00,
2013-03-18 23:10:00,55.1,36.7,29.89,North,0,0.0,0.0,50,0.00,,,0.00,WUHU216HW,2013-03-19 03:10:00,
2013-03-18 23:30:00,55.8,36.4,29.91,North,0,0.0,0.0,48,0.00,,,0.00,WUHU216HW,2013-03-19 03:30:00,
2013-03-18 23:35:00,55.8,36.4,29.91,North,0,0.0,0.0,48,0.00,,,0.00,WUHU216HW,2013-03-19 03:35:00,